Погода в Херви Бэй

Австралия     25°17′24″S   152°51′16″E
темп.,
°C
ветер,
м/с
пор.,
м/с
влажн.,
%
обл.,
%
осадки,
мм/ч
давл.,
гПа
погр.,
м
11 августа, чт
чт1101:00+17юв69670 0.1 1023980
04:00+17юв58682 0.1 1023764
07:00+16ююв57715 0.0 1024503
10:00+19вюв676084 0.0 10241509
13:00+19юв5659100 0.0 1022909
16:00+19юв66635 0.0 1021807
19:00+18юв5670100 0.0 1023750
22:00+17юв4679100 0.2 1023399
12 августа, пт
пт1201:00+18вюв4779100 0.4 1022500
04:00+17вюв4684100 0.9 1021486
07:00+18в4778100 0.8 1022632
10:00+19всв4674100 0.9 1022712
13:00+19ссв1176100 0.1 102030
16:00+19ссв2477100 0.3 1018285
19:00+19всв3577100 0.3 1019206
22:00+19всв3578100 0.4 1019153
13 августа, сб
сб1301:00+19ссв4679100 0.4 1018268
04:00+19с3483100 0.5 1016126
07:00+19ссз3382100 0.1 101781
10:00+19сз468399 0.1 1016310
13:00+19сз468366 0.7 1014143
16:00+19сз57840 3.1 1012222
19:00+19зсз34810 2.6 101363
22:00+18з34840 2.6 101495
14 августа, вс
вс1401:00+16юз611840 0.3 1014325
04:00+14юз610710 0.3 1013240
07:00+13юз48710 0.0 1015237
10:00+17зюз58470 0.0 1016959
13:00+18з68460 0.0 10131682
16:00+19з58501 0.0 1012398
19:00+17з57570 0.0 1014233
22:00+15зюз34560 0.0 1015121
15 августа, пн
пн1501:00+14юз58570 0.0 1015220
04:00+13юз44610 0.0 1014154
07:00+13зюз46630 0.0 1016193
10:00+16зюз67540 0.0 1016817
13:00+19з68480 0.0 10121629
16:00+19з69510 0.0 1010433
19:00+17з610560 0.0 1012387
22:00+16з58550 0.0 1012203